FENGYUN 1C DEB, 31883

Orbit data source: Space-Track

FENGYUN 1C DEB, 31883 is space debris in SSO originally from a launch on Mon, 10 May 1999 UTC launched from the Taiyaun Space Center, China (TSC). Fengyun 1C debris stems from the Chinese weather satellite Fengyun-1C, which was intentionally destroyed by a Chinese anti-satellite missile in 2007. This event dramatically increased the amount of space debris, with thousands of trackable fragments posing hazards to satellites and human spaceflight. The Fengyun 1C debris cloud has become a focal point in discussions about space sustainability and the need for international regulations to prevent the creation of new debris.

Loading next visibility...
Identifier
31883, 1999-025CKJ
Orbit
SSO
Country
Flag of CNCN / PRC
Related business
Manufacturer
Unknown
Mission
Spacecraft
Bus & Motor
Unknown
Mass
Unknown
Launch date (UTC)
1999-05-10 (27 years ago)
Launch vehicle
Unknown
Launch site
Taiyaun Space Center, China (TSC)
Object type
Payload
Rocket body
Debris
Shape & HBR
Unknown shape, 0.1 m
Radar Cross Section
Small (<0.1 m²)

Expand to show TLE details & history
Last TLE update: 18 hours ago

TLE from 18 hours ago
0 FENGYUN 1C DEB
1 31883U 99025CKJ 26207.58190869  .00004400  00000-0  66887-3 0  9997
2 31883  99.0355 152.8307 0121184  91.4389 270.0700 14.69736771 12799
Epoch: 2026-07-26T13:57Z
TLE epoch observation values (Epoch: 2026-07-26T13:57:56.910Z)
Latitude
0.00001°
Longitude
-0.9342°
Altitude
665.81 km
Speed
7.524 km/s
True Right ascension
10h 11m 19s
True Declination
0° 00' 00"
Sunlit
Object was in daylight at epoch
Visualization orbit readout
Latitude
Unknown
Longitude
Unknown
Altitude
Unknown
Speed
Unknown
Apparent Right ascension
Unknown
Apparent Declination
Unknown
Sunlit
N/A
Visualization observer readout
Local Sidereal Time
21:10:17
Azimuth
Unknown
Elevation
Unknown
Doppler factor
Unknown
Orbital elements
Apogee altitude
744.296 km
Perigee altitude
573.738 km
Semi-major axis
7,037.154 km
Eccentricity
0.01212
Inclination
99.0355°
RAAN
152.8307°
Arg. of periapsis
91.4389°
True anomaly
268.68144°
Mean anomaly
270.07°
Eccentric anomaly
269.37571°
Mean motion
3.67661 °/min
Orbital period
97.92 mins
BSTAR
0.00066887
Loading maneuver chart data...
Computing Atmospheric mass density...

Documentation

Showing up to 5 results
|